Stations météo

Publicité
Paris/Charles De Gaulle, France (7157): Température de l'air & dewpoint: 14.09.2019 06:00:00 - 20.09.2019 06:00:00 (CEST)Paris/Charles De Gaulle, France (7157): Température de l'air 5cm: 14.09.2019 06:00:00 - 20.09.2019 06:00:00 (CEST)Paris/Charles De Gaulle, France (7157): Température de l'air -20cm & Température de l'air -100cm: 14.09.2019 06:00:00 - 20.09.2019 06:00:00 (CEST)Paris/Charles De Gaulle, France (7157): Vitesse du vent & gusts: 14.09.2019 06:00:00 - 20.09.2019 06:00:00 (CEST)Paris/Charles De Gaulle, France (7157): Direction du vent: 14.09.2019 06:00:00 - 20.09.2019 06:00:00 (CEST)Paris/Charles De Gaulle, France (7157): reduced air pressure: 14.09.2019 06:00:00 - 20.09.2019 06:00:00 (CEST)Paris/Charles De Gaulle, France (7157): visibility: 14.09.2019 06:00:00 - 20.09.2019 06:00:00 (CEST)Paris/Charles De Gaulle, France (7157): Ensoleillement: 14.09.2019 06:00:00 - 20.09.2019 06:00:00 (CEST)Paris/Charles De Gaulle, France (7157): Quantités de précipitations: 14.09.2019 06:00:00 - 20.09.2019 06:00:00 (CEST)
Date & Time tt [°C] td [°C] tt 5cm [°C] tt -20cm [°C] tt -100cm [°C] ff [km/h] ff [knt] fx [km/h] fx [knt] dd ppp [hPa] vv [km] sd [min] rr [mm]
20.09.2019 06:00:00 8,8 3,0 - - - 18 10 31 17 NE 1026,4 20 0 -
20.09.2019 05:00:00 8,9 3,1 8,4 18,3 19,3 18 10 36 20 NNE 1026,9 20 0 0,0
20.09.2019 04:00:00 9,5 3,2 8,1 18,6 19,3 22 12 39 21 NNE 1027,2 20 0 0,0
20.09.2019 03:00:00 9,6 3,1 8,7 18,8 19,3 15 8 22 12 NNE 1027,5 20 0 0,0
20.09.2019 02:00:00 10,7 3,7 10,2 19,0 19,3 16 8 34 18 NE 1027,9 20 0 0,0
20.09.2019 01:00:00 11,1 3,9 10,6 19,2 19,4 20 11 40 21 NE 1027,9 20 0 0,0
20.09.2019 00:00:00 12,2 4,7 11,4 19,4 19,3 22 12 33 18 NE 1028,1 20 0 0,0
19.09.2019 23:00:00 13,0 4,9 12,2 19,6 19,4 21 12 37 20 NNE 1028,3 20 0 0,0
19.09.2019 22:00:00 14,0 4,8 13,3 19,8 19,4 22 12 42 23 NNE 1028,0 20 0 0,0
19.09.2019 21:00:00 14,3 4,6 13,6 19,9 19,4 19 11 44 24 NNE 1027,8 20 0 0,0
19.09.2019 20:00:00 16,3 3,4 15,5 19,9 19,4 18 10 36 19 NNE 1027,3 20 17 0,0
19.09.2019 19:00:00 18,2 2,1 18,1 19,7 19,4 22 12 49 27 NE 1027,2 20 60 0,0
19.09.2019 18:00:00 18,8 2,2 21,6 19,5 19,4 27 15 46 25 NNE 1027,1 20 60 0,0
19.09.2019 17:00:00 19,0 2,3 22,9 19,1 19,4 29 16 45 25 NNE 1027,1 20 60 0,0
19.09.2019 16:00:00 19,2 2,5 23,1 18,8 19,4 25 14 48 26 NNE 1027,6 20 60 0,0
19.09.2019 15:00:00 19,1 4,4 22,6 18,4 19,4 27 15 44 24 NNE 1028,2 20 60 0,0
19.09.2019 14:00:00 17,9 4,8 21,9 18,1 19,4 27 15 45 24 NNE 1028,7 20 60 0,0
19.09.2019 13:00:00 17,1 4,7 20,4 17,8 19,4 27 14 42 23 NE 1029,1 14 60 0,0
19.09.2019 12:00:00 16,4 5,9 18,7 17,7 19,4 28 15 45 24 NE 1029,5 20 60 0,0
19.09.2019 11:00:00 15,2 6,2 16,3 17,8 19,4 28 15 41 22 NE 1029,7 20 60 0,0
19.09.2019 10:00:00 12,8 6,4 12,9 17,9 19,5 23 12 41 22 NNE 1029,5 30 60 0,0
19.09.2019 09:00:00 10,4 6,5 9,0 18,0 19,4 20 11 32 18 NNE 1029,1 30 60 0,0
19.09.2019 08:00:00 8,7 6,1 8,0 18,2 19,5 14 8 31 17 N 1028,7 40 6 0,0
19.09.2019 07:00:00 8,6 5,9 8,1 18,4 19,5 14 8 33 18 N 1028,4 40 0 0,0
19.09.2019 06:00:00 8,8 5,5 8,4 18,6 19,5 12 7 31 17 N 1028,2 40 0 0,0
19.09.2019 05:00:00 9,2 5,7 8,5 18,8 19,5 11 6 25 13 N 1028,2 40 0 0,0
19.09.2019 04:00:00 10,1 6,2 8,7 19,0 19,5 14 8 31 17 N 1028,0 40 0 0,0
19.09.2019 03:00:00 10,5 6,1 10,0 19,2 19,5 16 9 27 14 NNE 1028,1 40 0 0,0
19.09.2019 02:00:00 11,2 5,9 10,7 19,4 19,5 18 10 29 16 N 1028,3 40 0 0,0
19.09.2019 01:00:00 12,0 5,8 11,4 19,6 19,5 18 10 41 22 NNE 1027,9 40 0 0,0
19.09.2019 00:00:00 12,7 4,9 12,0 19,9 19,5 21 11 42 23 NNE 1027,6 40 0 0,0
18.09.2019 23:00:00 13,0 4,4 12,3 20,1 19,5 21 12 48 26 NNE 1027,4 40 0 0,0
18.09.2019 22:00:00 13,5 3,8 12,9 20,2 19,5 17 9 49 26 NNE 1026,8 40 0 0,0
18.09.2019 21:00:00 14,5 3,9 13,6 20,4 19,5 19 10 36 19 NNE 1026,4 59 0 0,0
18.09.2019 20:00:00 15,8 3,9 15,2 20,4 19,5 18 10 39 21 NNE 1025,8 40 14 0,0
18.09.2019 19:00:00 17,6 3,8 17,7 20,3 19,5 26 14 63 34 NNE 1025,4 40 60 0,0
18.09.2019 18:00:00 18,3 3,7 21,0 20,0 19,5 26 14 62 34 NNE 1025,4 40 60 0,0
18.09.2019 17:00:00 18,7 4,1 22,6 19,7 19,5 29 16 60 33 N 1025,3 40 60 0,0
18.09.2019 16:00:00 19,1 3,7 21,4 19,5 19,5 27 15 50 27 NNE 1025,6 40 60 0,0
18.09.2019 15:00:00 18,5 3,9 21,8 19,1 19,5 26 14 50 27 N 1025,8 25 60 0,0
18.09.2019 14:00:00 17,5 5,1 18,9 18,8 19,5 29 16 58 31 NNE 1026,4 25 49 0,0
18.09.2019 13:00:00 17,2 4,8 20,6 18,7 19,5 28 15 46 25 NNE 1026,4 25 60 0,0
18.09.2019 12:00:00 16,1 4,5 19,2 18,6 19,5 31 17 60 32 NNE 1026,9 25 60 0,0
18.09.2019 11:00:00 14,2 5,3 15,7 18,7 19,5 28 15 42 23 NE 1027,2 25 56 0,0
18.09.2019 10:00:00 12,9 5,8 13,3 18,8 19,5 22 12 39 21 NNE 1027,1 25 60 0,0
18.09.2019 09:00:00 10,1 5,5 8,7 19,0 19,5 19 11 34 19 NNE 1026,7 25 33 0,0
18.09.2019 08:00:00 8,4 4,8 7,8 19,3 19,5 19 10 40 21 NNE 1026,1 20 7 0,0
18.09.2019 07:00:00 8,2 4,6 7,8 19,5 19,5 15 8 36 20 NNE 1026,0 35 0 0,0
18.09.2019 06:00:00 8,8 4,8 8,0 19,8 19,5 11 6 29 16 N 1025,6 35 0 0,0
18.09.2019 05:00:00 9,5 5,3 8,8 20,0 19,5 14 8 29 16 NNE 1025,9 41 0 0,0
18.09.2019 04:00:00 9,9 5,5 9,3 20,2 19,4 16 8 36 19 NNE 1025,5 35 0 0,0
18.09.2019 03:00:00 10,5 5,9 10,0 20,5 19,4 18 10 26 14 NNE 1025,3 35 0 0,0
18.09.2019 02:00:00 11,4 5,9 10,8 20,7 19,5 16 8 33 18 NNE 1025,3 35 0 0,0
18.09.2019 01:00:00 12,4 6,7 11,8 21,0 19,4 21 11 43 23 NNE 1024,9 35 0 0,0
18.09.2019 00:00:00 13,4 7,2 12,9 21,2 19,4 26 14 75 41 NNE 1024,5 35 0 0,0
17.09.2019 23:00:00 14,5 7,5 14,1 21,5 19,5 22 12 44 24 NNE 1024,1 35 0 0,0
17.09.2019 22:00:00 15,7 8,2 15,2 21,6 19,4 22 12 43 23 N 1023,6 35 0 0,0
17.09.2019 21:00:00 16,2 8,2 15,3 21,8 19,5 16 8 32 17 NNE 1022,9 35 0 0,0
17.09.2019 20:00:00 18,0 8,3 17,3 21,8 19,4 15 8 46 25 NNE 1022,4 35 14 0,0
17.09.2019 19:00:00 19,9 8,2 20,0 21,6 19,4 21 12 44 24 NNE 1022,0 35 60 0,0
17.09.2019 18:00:00 20,9 7,8 24,4 21,4 19,4 19 10 37 20 N 1021,9 35 60 0,0
17.09.2019 17:00:00 21,3 8,5 25,5 21,1 19,4 18 10 42 23 NNE 1021,8 14 60 0,0
17.09.2019 16:00:00 21,2 8,5 26,0 20,8 19,4 19 10 38 21 N 1022,1 40 58 0,0
17.09.2019 15:00:00 20,5 8,8 22,9 20,6 19,4 20 11 35 19 N 1022,3 40 34 0,0
17.09.2019 14:00:00 20,6 10,4 21,9 20,3 19,4 16 8 37 20 N 1022,4 30 35 0,0
17.09.2019 13:00:00 20,4 11,1 21,1 20,3 19,5 16 9 35 19 N 1022,9 30 37 0,0
17.09.2019 12:00:00 18,3 12,5 18,9 20,3 19,4 17 9 32 17 N 1023,2 25 0 0,0
17.09.2019 11:00:00 17,5 13,2 17,9 20,3 19,4 13 7 46 25 NNE 1023,1 10 0 0,0
17.09.2019 10:00:00 17,1 14,2 17,7 20,4 19,4 13 7 24 13 NNE 1022,7 7 0 0,0
17.09.2019 09:00:00 16,9 14,4 16,6 20,5 19,4 13 7 31 17 N 1022,2 9 0 0,0
17.09.2019 08:00:00 16,4 14,4 15,8 20,6 19,4 10 5 34 18 N 1021,9 11 0 0,0
17.09.2019 07:00:00 16,1 14,3 15,9 20,7 19,4 10 5 28 15 N 1021,5 11 0 0,0
17.09.2019 06:00:00 16,4 14,4 16,2 20,9 19,4 9 5 24 13 NW 1021,5 12 0 0,0
17.09.2019 05:00:00 16,5 14,3 16,4 21,0 19,4 6 4 13 7 NNW 1021,3 12 0 0,0
17.09.2019 04:00:00 16,5 14,3 16,0 21,2 19,4 6 4 15 8 N 1021,4 15 0 0,0
17.09.2019 03:00:00 15,9 14,3 15,4 21,4 19,4 11 6 21 12 NNW 1021,5 15 0 0,0
17.09.2019 02:00:00 16,3 14,1 15,9 21,6 19,4 14 8 22 12 NNW 1021,7 15 0 0,0
17.09.2019 01:00:00 17,0 14,3 16,6 21,7 19,4 16 8 21 12 NNW 1021,7 15 0 0,0
17.09.2019 00:00:00 17,3 14,0 16,8 21,9 19,4 10 6 22 12 NNW 1021,7 15 0 0,0
16.09.2019 23:00:00 17,7 14,0 17,1 22,1 19,3 11 6 21 11 N 1021,5 25 0 0,0
16.09.2019 22:00:00 19,2 13,6 18,6 22,2 19,3 14 8 24 13 NNW 1021,1 30 0 0,0
16.09.2019 21:00:00 20,4 13,8 19,9 22,3 19,4 17 9 27 14 NNW 1020,7 30 0 0,0
16.09.2019 20:00:00 22,1 14,7 21,7 22,2 19,3 19 10 34 19 NNW 1020,0 30 0 0,0
16.09.2019 19:00:00 24,8 13,4 25,1 22,0 19,4 17 9 29 16 NNW 1019,5 40 18 0,0
16.09.2019 18:00:00 25,8 13,6 28,3 21,7 19,3 12 6 25 13 WNW 1019,4 40 50 0,0
16.09.2019 17:00:00 26,7 13,1 31,2 21,3 19,3 11 6 29 16 W 1019,8 40 60 0,0
16.09.2019 16:00:00 26,7 12,0 31,2 20,8 19,4 13 7 21 11 WSW 1020,0 30 60 0,0
16.09.2019 15:00:00 25,6 10,6 31,1 20,3 19,3 5 3 22 12 WNW 1020,8 31 60 0,0
16.09.2019 14:00:00 25,5 8,9 31,0 19,9 19,4 6 3 19 10 W 1021,2 30 60 0,0
16.09.2019 13:00:00 24,5 -2,2 28,7 19,6 19,3 10 5 21 11 WSW 1021,7 30 58 0,0
16.09.2019 12:00:00 22,6 5,5 27,5 19,5 19,3 6 4 19 10 W 1022,0 30 60 0,0
16.09.2019 11:00:00 19,6 8,0 22,4 19,5 19,3 5 3 13 7 NNW 1022,3 30 60 0,0
16.09.2019 10:00:00 16,1 9,3 16,4 19,7 19,3 8 5 12 7 NNW 1022,4 30 16 0,0
16.09.2019 09:00:00 15,1 8,6 13,5 19,8 19,3 4 2 9 5 N 1022,3 30 17 0,0
16.09.2019 08:00:00 13,2 8,9 12,4 20,0 19,3 4 2 14 8 NW 1022,0 30 0 0,0
16.09.2019 07:00:00 13,4 9,4 11,6 20,2 19,3 9 5 18 10 NNW 1021,8 25 0 0,0
16.09.2019 06:00:00 12,8 9,2 11,3 20,5 19,3 7 4 10 6 NW 1021,6 25 0 0,0
16.09.2019 05:00:00 13,4 9,6 11,5 20,7 19,3 6 3 8 5 W 1022,1 25 0 0,0
16.09.2019 04:00:00 14,0 10,4 11,1 20,9 19,3 4 2 14 8 N 1022,7 30 0 0,0
16.09.2019 03:00:00 14,3 10,7 13,6 21,2 19,3 13 7 17 9 N 1022,7 30 0 0,0
16.09.2019 02:00:00 15,5 11,3 14,7 21,4 19,3 13 7 16 8 N 1022,9 30 0 0,0
16.09.2019 01:00:00 16,4 11,3 15,6 21,6 19,3 12 7 16 9 N 1023,0 35 0 0,0
16.09.2019 00:00:00 17,8 11,6 17,1 21,8 19,3 13 7 47 26 N 1023,2 35 0 0,0
15.09.2019 23:00:00 18,9 11,7 17,9 22,1 19,3 13 7 27 15 N 1023,0 35 0 0,0
15.09.2019 22:00:00 20,2 10,3 19,0 22,2 19,3 13 7 31 17 N 1022,7 35 0 0,0
15.09.2019 21:00:00 22,3 9,8 20,7 22,3 19,3 9 5 19 11 NNE 1022,5 35 0 0,0
15.09.2019 20:00:00 23,9 9,8 22,3 22,2 19,3 8 4 19 11 NNE 1022,2 35 12 0,0
15.09.2019 19:00:00 26,4 8,8 25,7 21,9 19,3 9 5 24 13 NW 1021,9 35 60 0,0
15.09.2019 18:00:00 27,4 9,2 32,1 21,6 19,3 12 7 24 13 NW 1022,0 35 60 0,0
15.09.2019 17:00:00 27,4 10,1 31,8 21,1 19,3 8 4 24 13 NNW 1022,3 35 60 0,0
15.09.2019 16:00:00 26,6 9,4 31,5 20,6 19,3 10 5 26 14 N 1023,2 35 60 0,0
15.09.2019 15:00:00 25,9 10,5 31,5 20,1 19,3 14 8 44 24 N 1023,9 35 60 0,0
15.09.2019 14:00:00 25,0 9,7 30,4 19,7 19,3 7 4 32 17 NNE 1024,7 30 60 0,0
15.09.2019 13:00:00 23,9 10,6 29,6 19,4 19,3 13 7 28 15 N 1025,0 30 60 0,0
15.09.2019 12:00:00 23,5 10,5 29,1 19,2 19,3 11 6 19 11 NNE 1025,6 30 60 0,0
15.09.2019 11:00:00 22,7 11,4 25,3 19,2 19,3 9 5 15 8 N 1025,8 30 60 0,0
15.09.2019 10:00:00 18,1 10,9 21,8 19,2 19,3 8 4 11 6 N 1025,7 33 60 0,0
15.09.2019 09:00:00 15,4 9,7 14,1 19,4 19,3 5 3 8 5 N 1025,6 30 60 0,0
15.09.2019 08:00:00 13,3 9,2 11,5 19,6 19,3 10 6 18 10 N 1025,7 18 10 0,0
15.09.2019 07:00:00 12,3 8,6 11,6 19,8 19,3 14 8 18 10 N 1025,7 30 0 0,0
15.09.2019 06:00:00 12,7 8,8 11,8 20,0 19,3 9 5 15 8 N 1025,5 30 0 0,0
15.09.2019 05:00:00 13,0 9,1 12,3 20,2 19,3 12 7 32 18 N 1025,7 30 0 0,0
15.09.2019 04:00:00 13,6 9,2 12,7 20,5 19,3 11 6 18 10 N 1026,1 28 0 0,0
15.09.2019 03:00:00 14,3 9,7 13,5 20,7 19,3 17 9 24 13 N 1026,4 30 0 0,0
15.09.2019 02:00:00 15,2 9,8 13,9 20,9 19,3 13 7 17 9 N 1026,6 30 0 0,0
15.09.2019 01:00:00 16,0 9,9 15,2 21,1 19,3 14 8 18 10 N 1026,9 30 0 0,0
15.09.2019 00:00:00 16,8 10,4 15,5 21,3 19,3 13 7 24 13 N 1027,2 30 0 0,0
14.09.2019 23:00:00 17,7 10,6 16,1 21,5 19,3 13 7 26 14 NNE 1027,4 30 0 0,0
14.09.2019 22:00:00 19,1 11,4 17,6 21,6 19,3 14 8 34 18 NE 1027,4 30 0 0,0
14.09.2019 21:00:00 19,6 11,1 18,9 21,7 19,3 12 6 26 14 N 1027,7 53 0 0,0
14.09.2019 20:00:00 21,8 11,5 21,1 21,6 19,3 13 7 26 14 NNE 1027,2 46 13 0,0
14.09.2019 19:00:00 24,0 11,3 24,4 21,4 19,3 16 9 28 15 NNE 1027,2 30 60 0,0
14.09.2019 18:00:00 25,0 10,8 28,9 21,0 19,3 16 8 29 15 NE 1027,3 30 60 0,0
14.09.2019 17:00:00 25,1 11,3 30,1 20,6 19,3 16 9 31 17 ENE 1027,8 30 60 0,0
14.09.2019 16:00:00 25,2 11,4 30,4 20,1 19,3 16 9 32 18 NNE 1028,3 30 60 0,0
14.09.2019 15:00:00 24,8 12,1 28,8 19,7 19,3 20 11 36 20 NE 1028,9 25 60 0,0
14.09.2019 14:00:00 24,0 12,6 27,4 19,3 19,3 21 11 36 19 NE 1029,7 25 60 0,0
14.09.2019 13:00:00 21,9 13,5 26,5 19,1 19,3 15 8 28 15 NNE 1030,5 20 60 0,0
14.09.2019 12:00:00 20,2 13,9 22,7 19,0 19,3 12 7 27 15 NE 1031,3 15 60 0,0
14.09.2019 11:00:00 17,7 13,4 19,0 19,0 19,3 16 9 32 17 NNE 1031,6 15 58 0,0
14.09.2019 10:00:00 15,8 12,7 15,9 19,1 19,3 16 9 30 16 NNE 1031,9 9 55 0,0
14.09.2019 09:00:00 14,2 11,9 13,7 19,2 19,3 16 8 49 26 N 1032,2 7 56 0,0
14.09.2019 08:00:00 13,2 11,6 12,3 19,4 19,3 19 10 45 24 N 1032,0 7 10 0,0
14.09.2019 07:00:00 12,7 11,4 12,0 19,6 19,3 20 11 49 26 N 1032,0 8 0 0,0
14.09.2019 06:00:00 12,6 11,2 12,0 19,8 19,3 11 6 26 14 N 1031,8 12 0 0,0

tt = Température de l'air
td = dewpoint
tt 5cm = Température de l'air 5cm
tt -20cm = Température de l'air -20cm
tt -100cm = Température de l'air -100cm
ff = Vitesse du vent
fx = gusts
dd = Direction du vent
ppp = reduced air pressure
vv = visibility
sd = Ensoleillement
rr = Quantités de précipitations

stations d'obs. à proximité